Regional Weather Roundup
Issued by NWS

Home | Current Version | Previous Version | Graphics & Text | Print | Product List | Glossary On
Versions: 1 2 3 4 5 6 7 8 9 10 11 12 13 14 15 16 17 18 19 20 21 22 23 24 25 26 27
000
ASUS43 KDMX 241107
RWRIA

WEATHER ROUNDUP FOR IOWA
NATIONAL WEATHER SERVICE DES MOINES IA
600 AM CDT THU APR 24 2014

NOTE: "FAIR" INDICATES FEW OR NO CLOUDS BELOW 12,000 FEET WITH NO
SIGNIFICANT WEATHER AND/OR OBSTRUCTIONS TO VISIBILITY.

* - THESE STATIONS ARE NOT NWS STATIONS...THUS NOT UNDER NWS
QUALITY CONTROL.  THEY ALSO DO NOT REPORT WEATHER SUCH
AS PRECIPITATION OR FOG.

IAZ001>003-012>014-020>022-031>034-043>046-241200-
   NORTHWEST IOWA

CITY           SKY/WX    TMP DP  RH WIND       PRES   REMARKS
CARROLL *      CLOUDY    46  43  87 NE5       29.63F
CHEROKEE *     DRIZZLE   45  43  93 NE7       29.65F
DENISON *      CLOUDY    45  45 100 NE8       29.61F
LE MARS *        N/A     46  46 100 E6        29.66R
ORANGE CITY *  CLOUDY    46  43  87 E5        29.65F
SHELDON *      CLOUDY    45  43  93 E13       29.64F FOG
SIOUX CITY     CLOUDY    48  46  93 SE3       29.65F
SPENCER        LGT RAIN  44  41  89 E12       29.67F
STORM LAKE *   CLOUDY    43  43 100 E14G20    29.65S
$$

IAZ055>058-069>071-079>083-090>094-241200-
   SOUTHWEST IOWA

CITY           SKY/WX    TMP DP  RH WIND       PRES   REMARKS
ATLANTIC *     CLOUDY    50  45  81 W3        29.61R
AUDUBON *      PTCLDY    46  39  76 NW5       29.63S
CLARINDA *     MOCLDY    55  48  76 CALM      29.62S
COUNCIL BLFS * LGT RAIN  46  46 100 N7        29.61F
CRESTON *      MOCLDY    54  45  71 S15G22    29.63S
HARLAN  *      CLOUDY    46  45  93 N6        29.65R
LAMONI         CLOUDY    56  43  61 SE15G22   29.65F
RED OAK *      CLOUDY    52  48  87 NW5       29.60S
SHENANDOAH *   CLOUDY    52  50  93 CALM      29.60F
$$

IAZ047>049-059>061-072>074-084-241200-
   CENTRAL IOWA

CITY           SKY/WX    TMP DP  RH WIND       PRES   REMARKS
AMES           CLOUDY    47  40  76 SE16G24   29.65F
ANKENY *       MOCLDY    48  43  81 SE14G21   29.65F
CHARITON *     CLOUDY    50  43  76 SE14      29.68F
DES MOINES     CLOUDY    51  42  71 SE15G25   29.66F
GRINNELL*      LGT RAIN  46  39  76 SE16      29.72F
KNOXVILLE *    CLOUDY    48  39  71 SE10G17   29.69F
MARSHALLTOWN   LGT RAIN  46  39  76 SE25G32   29.68F
NEWTON *       CLOUDY    46  41  81 SE18G25   29.71F
PELLA *        LGT RAIN  48  39  71 SE8       29.72F
PERRY *        MOCLDY    50  41  71 SE15      29.61F
$$

IAZ004>006-015-016-023>025-035-036-241200-
   NORTH CENTRAL IOWA

CITY           SKY/WX    TMP DP  RH WIND       PRES   REMARKS
ALGONA *       LGT RAIN  45  41  87 SE21      29.69F
CLARION *      CLOUDY    45  41  87 E14G24    29.69F
ESTHERVILLE    LGT RAIN  43  42  97 SE13      29.70S
FORT DODGE *   CLOUDY    45  39  81 E10       29.67F
MASON CITY     LGT RAIN  42  40  92 E14       29.76F
FOREST CITY *  DRIZZLE   43  41  93 E16G23    29.72F
IOWA FALLS *   LGT RAIN  45  41  87 E20       29.69R
$$

IAZ007>011-017>019-026>030-037>042-050>054-066-241200-
   NORTHEAST IOWA

CITY           SKY/WX    TMP DP  RH WIND       PRES   REMARKS
CEDAR RAPIDS   CLOUDY    46  38  73 SE15G24   29.78F
CHARLES CITY * LGT RAIN  43  37  81 SE17G25   29.78R
CLINTON *      CLOUDY    43  36  75 E17       29.90F
DECORAH *      CLOUDY    41  37  87 SE14G23   29.82F
DUBUQUE        CLOUDY    42  32  67 SE21      29.85F
MONTICELLO *   MIX PCPN  45  36  70 SE21G28   29.82F
OELWEIN *      CLOUDY   N/A N/A N/A SE20G28   29.78F
WATERLOO       LGT RAIN  44  38  79 SE21G29   29.75F
$$

IAZ064-065-067-068-078-241200-
   EAST CENTRAL IOWA

CITY           SKY/WX    TMP DP  RH WIND       PRES   REMARKS
DAVENPORT      CLOUDY    44  36  73 SE20G29   29.86F
IOWA CITY      CLOUDY    48  38  68 SE14G21   29.82F
MT. PLEASANT * CLOUDY    54  32  43 SE16G24   29.80R
MUSCATINE *    CLOUDY    50  37  62 SE14G26   29.82F
QUAD CITIES    CLOUDY    46  37  71 SE18G24   29.87F
$$

IAZ062-063-075>077-085>089-095>099-241200-
   SOUTHEAST IOWA

CITY           SKY/WX    TMP DP  RH WIND       PRES   REMARKS
BURLINGTON     MOCLDY    51  34  52 SE16      29.82F
FAIRFIELD *    CLOUDY    52  32  46 SE20G25   29.78S
FORT MADISON * CLEAR     54  34  47 SE12G30   29.82S
KEOKUK *       CLEAR     52  34  50 SE13G21   29.79F
OSKALOOSA *    MOCLDY    48  39  71 SE13      29.75S
CENTERVILLE *  MOCLDY    52  41  66 SE14      29.74F
OTTUMWA        CLOUDY    52  34  50 SE14      29.74F
WASHINGTON *   PTCLDY    50  36  57 SE17G24   29.79S
$$

ABBREVIATIONS USED IN REMARKS
   TC - TEMPERATURES IN CELSIUS
  WCI - WIND CHILL INDEX
   HX - HEAT INDEX
  VSB - VISIBILITY
$$




USA.gov is the U.S. government's official web portal to all federal, state and local government web resources and services.